Location: Unspecified
(0.0000°N, 0.0000°E)
Time: 21:33:56
(UTC+00:00)

CUBERRT - Pass Details

Date: 20 May 2019
Orbit: 370 x 376 km, 51.6° (Epoch: 25 June)

Event Time Altitude Azimuth Distance (km) Brightness Sun altitude
Exits shadow 05:11:02 - 300° (WNW) 1,650 ? -10.7°
Reaches altitude 10° 05:11:43 10° 295° (WNW) 1,394 ? -10.5°
Maximum altitude 05:14:26 27° 234° (SW) 778 ? -9.9°
Drops below altitude 10° 05:17:09 10° 174° (S) 1,402 ? -9.2°
Sets 05:19:24 0° 161° (SSE) 2,257 ? -8.7°
